Location: Chrząstowo
(52.0654°N, 17.1290°E)
Time: 21:14:01
(UTC+01:00)

ISS - Pass Details

Date: 30 January 2019
Orbit: 403 x 411 km, 51.6° (Epoch: 22 February)

Event Time Altitude Azimuth Distance (km) Brightness Sun altitude
Rises 17:24:25 0° 246° (WSW) 2,328 2.5 -7.8°
Reaches altitude 10° 17:26:30 10° 243° (WSW) 1,471 0.7 -8.1°
Maximum altitude 17:29:45 59° 163° (SSE) 480 -3.5 -8.6°
Enters shadow 17:32:41 12° 84° (E) 1,340 -1.8 -9.0°
